Location: Muenchen
(48.1800°N, 11.5800°E)
Time: 02:06:20
(UTC+01:00)

Tiros 1 - Visible Passes

Search period start: 27 January 2015 00:00
Search period end: 06 February 2015 00:00
Orbit: 633 x 666 km, 48.4° (Epoch: 26 January)

Date Brightness Start Highest point End Pass type
(mag) Time Alt. Az. Time Alt. Az. Time Alt. Az.
03 Feb 10.3 06:29:54 10° SSE 06:31:17 11° SE 06:32:50 10° ESE visible
04 Feb 9.6 06:54:01 10° SSW 06:57:39 23° SE 07:01:20 10° E visible
05 Feb 10.2 05:41:47 10° SSE 05:42:45 11° SE 05:43:55 10° ESE visible
